Cairns, Australia

8:02 PM AEST on September 20, 2017 (GMT +1000)
Cairns International

Weather History for YBCS - January, 2012

Change the Weather History Date:

Sunday, January 22, 2012

  Actual Average Record
Temperature  
Mean Temperature 83 °F -  
Max Temperature 89 °F 88 °F 93 °F (2008)
Min Temperature 77 °F 74 °F 73 °F (1997)
Cooling Degree Days 18    
Growing Degree Days 33 (Base 50)    
Moisture  
Dew Point 74 °F    
Average Humidity 77    
Maximum Humidity 94    
Minimum Humidity 57    
Precipitation  
Precipitation 0.03 in 0.55 in - ()
Sea Level Pressure  
Sea Level Pressure 29.75 in    
Wind  
Wind Speed 9 mph ()    
Max Wind Speed 17 mph    
Max Gust Speed -    
Visibility 7.2 miles    
Events Rain    
Averages and records for this station are not official NWS values.
T = Trace of Precipitation, MM = Missing Value Source: Averaged Metar Reports

Daily Weather History Graph

Daily Weather History Graph

Search for Another Location

Airport or City:

Trip Planner

Search our weather history database for the weather conditions in past years. The results will help you decide how hot, cold, wet, or windy it might be!

Date:

Astronomy

Jan. 22, 2012 Rise Set
Actual Time 5:59 AM AEST 6:57 PM AEST
Civil Twilight 5:36 AM AEST 7:20 PM AEST
Nautical Twilight 5:08 AM AEST 7:47 PM AEST
Astronomical Twilight 4:40 AM AEST 8:15 PM AEST
Moon 4:39 AM AEST (1/22) 5:57 PM AEST (1/22)
Length of Visible Light 13h 44m
Length of Day
12h 57m
Waning Crescent, 2% of the Moon is Illuminated
Jan 22
Waning Crescent
Jan 23
New
Jan 31
First Quarter
Feb 8
Full
Feb 15
Last Quarter

Hourly Weather History & Observations

Time (AEST) Temp. Heat Index Dew Point Humidity Pressure Visibility Wind Dir Wind Speed Gust Speed Precip Events Conditions
12:00 AM 78 °F - 75 °F 86% 29.79 in 12 mi South 9.2 mph - - Rain Light Rain Showers
12:00 AM 78.8 °F - 75.2 °F 89% 29.77 in 6.2 mi South 9.2 mph - N/A Rain Light Rain Showers
12:30 AM 78.8 °F - 73.4 °F 83% 29.77 in 6.2 mi South 9.2 mph - N/A   Mostly Cloudy
1:00 AM 80 °F - 73 °F 75% 29.76 in - South 10.4 mph - -  
1:00 AM 80.6 °F 85.4 °F 73.4 °F 79% 29.74 in 6.2 mi South 10.4 mph - N/A   Mostly Cloudy
1:30 AM 77.0 °F - 75.2 °F 94% 29.74 in 6.2 mi SSE 9.2 mph - N/A   Mostly Cloudy
2:00 AM 77.0 °F - 75.2 °F 94% 29.74 in 6.2 mi SSE 9.2 mph - N/A   Mostly Cloudy
2:30 AM 78.8 °F - 73.4 °F 83% 29.74 in 6.2 mi South 9.2 mph - N/A   Mostly Cloudy
3:00 AM 79 °F - 73 °F 76% 29.74 in 16 mi South 9.2 mph - -   Partly Cloudy
3:00 AM 78.8 °F - 73.4 °F 83% 29.74 in 6.2 mi South 9.2 mph - N/A   Mostly Cloudy
3:30 AM 78.8 °F - 73.4 °F 83% 29.74 in 6.2 mi SSE 8.1 mph - N/A   Mostly Cloudy
4:00 AM 79 °F - 73 °F 78% 29.74 in - SSE 8.1 mph - -  
4:00 AM 78.8 °F - 73.4 °F 83% 29.71 in 6.2 mi SSE 8.1 mph - N/A   Mostly Cloudy
4:30 AM 78.8 °F - 73.4 °F 83% 29.71 in 6.2 mi South 6.9 mph - N/A   Scattered Clouds
5:00 AM 77.0 °F - 75.2 °F 94% 29.71 in 6.2 mi SE 10.4 mph - N/A   Mostly Cloudy
5:30 AM 77.0 °F - 73.4 °F 89% 29.74 in 6.2 mi SE 10.4 mph - N/A   Scattered Clouds
6:00 AM 78 °F - 74 °F 84% 29.75 in 9 mi SE 9.2 mph - - Rain Light Rain Showers
6:00 AM 77.0 °F - 73.4 °F 89% 29.74 in 6.2 mi SE 9.2 mph - N/A Rain Light Rain Showers
6:30 AM 78.8 °F - 73.4 °F 83% 29.74 in 6.2 mi South 9.2 mph - N/A   Scattered Clouds
7:00 AM 79 °F - 74 °F 82% 29.78 in - SE 9.2 mph - -  
7:00 AM 78.8 °F - 75.2 °F 89% 29.77 in 6.2 mi SE 9.2 mph - N/A   Mostly Cloudy
7:30 AM 78.8 °F - 75.2 °F 89% 29.77 in 6.2 mi SE 8.1 mph - N/A   Scattered Clouds
8:00 AM 80.6 °F 86.2 °F 75.2 °F 84% 29.77 in 5.0 mi South 5.8 mph - N/A   Mostly Cloudy
9:00 AM 84 °F - 76 °F 70% 29.80 in 19 mi SE 6.9 mph - - Rain Light Rain Showers
9:00 AM 84.2 °F 92.3 °F 75.2 °F 74% 29.80 in 6.2 mi SE 6.9 mph - N/A   Mostly Cloudy
9:30 AM 86.0 °F 95.1 °F 75.2 °F 70% 29.80 in 6.2 mi SE 6.9 mph - N/A   Scattered Clouds
10:00 AM 87 °F - 75 °F 60% 29.81 in - SE 6.9 mph - -  
10:00 AM 87.8 °F 97.6 °F 75.2 °F 66% 29.80 in 6.2 mi SE 6.9 mph - N/A   Scattered Clouds
10:30 AM 86.0 °F 95.1 °F 75.2 °F 70% 29.77 in 6.2 mi SE 9.2 mph - N/A   Scattered Clouds
11:00 AM 87.8 °F 97.6 °F 75.2 °F 66% 29.77 in 6.2 mi ESE 9.2 mph - N/A   Scattered Clouds
11:30 AM 86.0 °F 96.9 °F 77.0 °F 74% 29.77 in 6.2 mi NE 10.4 mph - N/A   Scattered Clouds
12:00 PM 89 °F - 76 °F 59% 29.78 in 19 mi NE 12.7 mph - -   Mostly Cloudy
12:00 PM 89.6 °F 102.2 °F 77.0 °F 66% 29.77 in 6.2 mi NE 12.7 mph - N/A   Scattered Clouds
12:30 PM 89.6 °F 98.2 °F 73.4 °F 59% 29.77 in 6.2 mi East 13.8 mph - N/A   Scattered Clouds
1:00 PM 88 °F - 77 °F 63% 29.77 in - ENE 15.0 mph - -  
1:00 PM 87.8 °F 99.7 °F 77.0 °F 70% 29.74 in 6.2 mi ENE 15.0 mph - N/A   Mostly Cloudy
1:30 PM 87.8 °F 99.7 °F 77.0 °F 70% 29.74 in 6.2 mi ENE 15.0 mph - N/A   Mostly Cloudy
2:00 PM 86.0 °F 95.1 °F 75.2 °F 70% 29.74 in 5.0 mi East 15.0 mph - N/A   Mostly Cloudy
2:30 PM 87.8 °F 97.6 °F 75.2 °F 66% 29.74 in 5.0 mi East 13.8 mph - N/A   Scattered Clouds
3:00 PM 86 °F - 75 °F 62% 29.72 in 19 mi ESE 13.8 mph - -   Mostly Cloudy
3:00 PM 86.0 °F 95.1 °F 75.2 °F 70% 29.71 in 6.2 mi ESE 13.8 mph - N/A   Mostly Cloudy
3:30 PM 86.0 °F 93.4 °F 73.4 °F 66% 29.71 in 6.2 mi SE 17.3 mph - N/A   Mostly Cloudy
4:00 PM 87 °F - 74 °F 57% 29.72 in - SE 11.5 mph - -  
4:00 PM 87.8 °F 95.6 °F 73.4 °F 62% 29.71 in 6.2 mi SE 11.5 mph - N/A   Mostly Cloudy
4:30 PM 84.2 °F 92.3 °F 75.2 °F 74% 29.71 in 6.2 mi SSE 9.2 mph - N/A   Scattered Clouds
5:00 PM 84.2 °F 92.3 °F 75.2 °F 74% 29.71 in 6.2 mi SSE 11.5 mph - N/A   Mostly Cloudy
5:30 PM 84.2 °F 92.3 °F 75.2 °F 74% 29.71 in 6.2 mi South 8.1 mph - N/A   Mostly Cloudy
6:00 PM 82 °F - 75 °F 73% 29.74 in - South 6.9 mph - -  
6:00 PM 82.4 °F 89.5 °F 75.2 °F 79% 29.74 in 6.2 mi South 6.9 mph - N/A   Mostly Cloudy
6:30 PM 82.4 °F 89.5 °F 75.2 °F 79% 29.74 in 6.2 mi South 6.9 mph - N/A   Mostly Cloudy
7:00 PM 82 °F - 74 °F 70% 29.75 in - South 5.8 mph - -  
7:00 PM 82.4 °F 88.2 °F 73.4 °F 74% 29.74 in 6.2 mi South 5.8 mph - N/A   Mostly Cloudy
7:30 PM 80.6 °F 86.2 °F 75.2 °F 84% 29.74 in 6.2 mi SSE 6.9 mph - N/A   Mostly Cloudy
8:00 PM 80.6 °F 86.2 °F 75.2 °F 84% 29.74 in 6.2 mi SSE 6.9 mph - N/A   Scattered Clouds
8:30 PM 80.6 °F 85.4 °F 73.4 °F 79% 29.74 in 6.2 mi South 6.9 mph - N/A   Scattered Clouds
9:00 PM 80 °F - 74 °F 77% 29.77 in 12 mi South 9.2 mph - -   Partly Cloudy
9:00 PM 80.6 °F 85.4 °F 73.4 °F 79% 29.77 in 6.2 mi South 9.2 mph - N/A   Scattered Clouds
9:30 PM 78.8 °F - 73.4 °F 83% 29.77 in 6.2 mi South 12.7 mph - N/A   Scattered Clouds
10:00 PM 78 °F - 71 °F 73% 29.80 in - South 12.7 mph - -  
10:00 PM 78.8 °F - 71.6 °F 78% 29.77 in 6.2 mi South 12.7 mph - N/A   Scattered Clouds
10:30 PM 78.8 °F - 71.6 °F 78% 29.80 in 6.2 mi South 10.4 mph - N/A   Scattered Clouds
11:00 PM 78.8 °F - 73.4 °F 83% 29.80 in 6.2 mi WSW 5.8 mph - N/A Rain Light Rain Showers
11:09 PM 77.0 °F - 75.2 °F 94% 29.80 in 1.9 mi North 4.6 mph - N/A Rain Light Rain Showers
11:30 PM 77.0 °F - 75.2 °F 94% 29.80 in 6.2 mi North 1.2 mph - N/A Rain Light Rain Showers